Anchorage Merrill, AK

8:56 AM AKDT on July 25, 2017 (GMT -0800)
Merrill

Weather History for PAMR - January, 2014

Change the Weather History Date:

Monday, January 6, 2014

  Actual Average Record
Temperature  
Mean Temperature 28 °F -  
Max Temperature 35 °F 19 °F 35 °F (2002)
Min Temperature 21 °F 7 °F -18 °F (1997)
Degree Days  
Heating Degree Days 37    
Moisture  
Dew Point 25 °F    
Average Humidity 81    
Maximum Humidity 89    
Minimum Humidity 76    
Precipitation  
Precipitation 0.00 in - - ()
Sea Level Pressure  
Sea Level Pressure 29.69 in    
Wind  
Wind Speed 1 mph (WNW)    
Max Wind Speed 9 mph    
Max Gust Speed -    
Visibility 10 miles    
Events      
Averages and records for this station are not official NWS values.
T = Trace of Precipitation, MM = Missing Value Source: NWS Daily Summary

Daily Weather History Graph

Daily Weather History Graph

Search for Another Location

Airport or City:

Trip Planner

Search our weather history database for the weather conditions in past years. The results will help you decide how hot, cold, wet, or windy it might be!

Date:

Astronomy

Jan. 06, 2014 Rise Set
Actual Time 10:09 AM AKST 4:02 PM AKST
Civil Twilight 9:09 AM AKST 5:01 PM AKST
Nautical Twilight 8:11 AM AKST 5:59 PM AKST
Astronomical Twilight 7:18 AM AKST 6:52 PM AKST
Moon 11:31 AM AKST (1/6) No Moon Set
Length of Visible Light 7h 51m
Length of Day
5h 53m
Waxing Crescent, 36% of the Moon is Illuminated
Jan 6
Waxing Crescent
Jan 7
First Quarter
Jan 15
Full
Jan 23
Last Quarter
Jan 30
New

Hourly Weather History & Observations

Time (AKST) Temp. Windchill Dew Point Humidity Pressure Visibility Wind Dir Wind Speed Gust Speed Precip Events Conditions
12:53 AM 33.1 °F - 27.0 °F 78% 29.72 in 10.0 mi Calm Calm - N/A   Overcast
1:53 AM 30.9 °F - 27.0 °F 85% 29.71 in 10.0 mi Calm Calm - 0.00 in   Overcast
3:53 AM 30.9 °F 27.5 °F 26.1 °F 82% 29.70 in 10.0 mi West 3.5 mph - N/A   Overcast
4:53 AM 30.9 °F - 26.1 °F 82% 29.69 in 10.0 mi Calm Calm - N/A   Overcast
5:53 AM 30.9 °F - 26.1 °F 82% 29.69 in 10.0 mi Calm Calm - N/A   Overcast
6:53 AM 33.1 °F 27.7 °F 27.0 °F 78% 29.67 in 10.0 mi North 5.8 mph - N/A   Overcast
7:53 AM 33.1 °F 28.7 °F 27.0 °F 78% 29.68 in 10.0 mi SW 4.6 mph - N/A   Overcast
8:53 AM 32.0 °F - 27.0 °F 82% 29.68 in 10.0 mi Calm Calm - N/A   Overcast
9:53 AM 33.1 °F - 28.0 °F 82% 29.69 in 10.0 mi Calm Calm - N/A   Overcast
10:53 AM 34.0 °F 31.0 °F 28.0 °F 79% 29.69 in 10.0 mi North 3.5 mph - N/A   Overcast
11:53 AM 33.1 °F 30.0 °F 28.0 °F 82% 29.70 in 10.0 mi WSW 3.5 mph - N/A   Scattered Clouds
12:53 PM 34.0 °F - 28.0 °F 79% 29.69 in 10.0 mi Calm Calm - N/A   Partly Cloudy
1:53 PM 32.0 °F - 26.1 °F 79% 29.69 in 10.0 mi Calm Calm - N/A   Partly Cloudy
2:53 PM 35.1 °F - 28.0 °F 76% 29.69 in 10.0 mi Calm Calm - N/A   Mostly Cloudy
3:53 PM 30.9 °F - 25.0 °F 79% 29.69 in 10.0 mi Calm Calm - N/A   Scattered Clouds
4:53 PM 32.0 °F - 26.1 °F 79% 29.70 in 10.0 mi Calm Calm - N/A   Overcast
5:53 PM 30.0 °F - 25.0 °F 82% 29.68 in 10.0 mi Calm Calm - N/A   Scattered Clouds
6:53 PM 30.9 °F - 25.0 °F 79% 29.68 in 10.0 mi Calm Calm - N/A   Mostly Cloudy
7:53 PM 24.1 °F - 19.9 °F 84% 29.68 in 10.0 mi Calm Calm - N/A   Scattered Clouds
8:53 PM 21.9 °F 11.7 °F 19.0 °F 89% 29.67 in 10.0 mi NE 9.2 mph - N/A   Clear
9:53 PM 21.9 °F - 18.0 °F 85% 29.68 in 10.0 mi Calm Calm - N/A   Mostly Cloudy
10:53 PM 21.0 °F - 17.1 °F 85% 29.68 in 10.0 mi Calm Calm - N/A   Overcast
11:53 PM 21.0 °F - 16.0 °F 81% 29.68 in 10.0 mi Calm Calm - N/A   Mostly Cloudy